Time,TemperatureF,DewpointF,PressureIn,WindDirection,WindDirectionDegrees,WindSpeedMPH,WindSpeedGustMPH,Humidity,HourlyPrecipIn,Conditions,Clouds,dailyrainin,SoftwareType,DateUTC
2013-01-13 00:17:00,61.9,60.0,30.12,SE,142,0.0,0.0,93,0.00,,,0.00,weatherlink.com 1.10,2013-01-13 05:17:00,
2013-01-13 00:32:00,61.3,59.0,30.12,SE,142,0.0,0.0,93,0.00,,,0.00,weatherlink.com 1.10,2013-01-13 05:32:00,
2013-01-13 00:47:00,60.6,59.0,30.13,SE,142,0.0,0.0,93,0.00,,,0.00,weatherlink.com 1.10,2013-01-13 05:47:00,
2013-01-13 01:02:00,60.3,59.0,30.13,SE,142,0.0,0.0,94,0.00,,,0.00,weatherlink.com 1.10,2013-01-13 06:02:00,
2013-01-13 01:17:00,59.7,58.0,30.13,SE,142,0.0,0.0,94,0.00,,,0.00,weatherlink.com 1.10,2013-01-13 06:17:00,
2013-01-13 01:32:00,59.5,58.0,30.13,SE,142,0.0,0.0,94,0.00,,,0.00,weatherlink.com 1.10,2013-01-13 06:32:00,
2013-01-13 01:47:00,59.0,57.0,30.13,SE,142,0.0,0.0,94,0.00,,,0.00,weatherlink.com 1.10,2013-01-13 06:47:00,
2013-01-13 02:02:00,58.7,57.0,30.12,SE,142,0.0,0.0,94,0.00,,,0.00,weatherlink.com 1.10,2013-01-13 07:02:00,
2013-01-13 02:17:00,58.3,57.0,30.12,SE,142,0.0,0.0,94,0.00,,,0.00,weatherlink.com 1.10,2013-01-13 07:17:00,
2013-01-13 02:33:00,57.9,56.0,30.12,SE,142,0.0,0.0,94,0.00,,,0.00,weatherlink.com 1.10,2013-01-13 07:33:00,
2013-01-13 02:48:00,57.8,56.0,30.11,SE,142,0.0,0.0,94,0.00,,,0.00,weatherlink.com 1.10,2013-01-13 07:48:00,
2013-01-13 03:03:00,57.7,56.0,30.11,SE,142,0.0,1.0,94,0.00,,,0.00,weatherlink.com 1.10,2013-01-13 08:03:00,
2013-01-13 03:18:00,57.8,56.0,30.11,SE,142,0.0,1.0,94,0.00,,,0.00,weatherlink.com 1.10,2013-01-13 08:18:00,
2013-01-13 03:33:00,57.3,56.0,30.10,SE,142,0.0,0.0,94,0.00,,,0.00,weatherlink.com 1.10,2013-01-13 08:33:00,
2013-01-13 03:48:00,57.1,55.0,30.10,SE,142,0.0,0.0,94,0.00,,,0.00,weatherlink.com 1.10,2013-01-13 08:48:00,
2013-01-13 04:03:00,57.0,56.0,30.10,SE,142,0.0,0.0,95,0.00,,,0.00,weatherlink.com 1.10,2013-01-13 09:03:00,
2013-01-13 04:18:00,56.9,56.0,30.09,SE,142,0.0,0.0,95,0.00,,,0.00,weatherlink.com 1.10,2013-01-13 09:18:00,
2013-01-13 04:33:00,56.8,55.0,30.09,SE,142,0.0,0.0,95,0.00,,,0.00,weatherlink.com 1.10,2013-01-13 09:33:00,
2013-01-13 04:48:00,56.6,55.0,30.09,SE,142,0.0,0.0,95,0.00,,,0.00,weatherlink.com 1.10,2013-01-13 09:48:00,
2013-01-13 05:03:00,56.3,55.0,30.09,SE,142,0.0,0.0,95,0.00,,,0.00,weatherlink.com 1.10,2013-01-13 10:03:00,
2013-01-13 05:18:00,56.1,55.0,30.09,SE,142,0.0,0.0,95,0.00,,,0.00,weatherlink.com 1.10,2013-01-13 10:18:00,
2013-01-13 05:33:00,56.1,55.0,30.09,SE,142,0.0,0.0,95,0.00,,,0.00,weatherlink.com 1.10,2013-01-13 10:33:00,
2013-01-13 05:48:00,55.9,55.0,30.09,SE,142,0.0,0.0,95,0.00,,,0.00,weatherlink.com 1.10,2013-01-13 10:48:00,
2013-01-13 06:03:00,56.0,55.0,30.10,SE,142,0.0,0.0,95,0.00,,,0.00,weatherlink.com 1.10,2013-01-13 11:03:00,
2013-01-13 06:18:00,55.9,55.0,30.10,SE,142,0.0,0.0,95,0.00,,,0.00,weatherlink.com 1.10,2013-01-13 11:18:00,
2013-01-13 06:33:00,56.1,55.0,30.11,SE,142,0.0,0.0,95,0.00,,,0.00,weatherlink.com 1.10,2013-01-13 11:33:00,
2013-01-13 06:48:00,55.8,54.0,30.11,SE,142,0.0,0.0,95,0.00,,,0.00,weatherlink.com 1.10,2013-01-13 11:48:00,
2013-01-13 07:03:00,55.6,54.0,30.12,SE,142,0.0,0.0,95,0.00,,,0.00,weatherlink.com 1.10,2013-01-13 12:03:00,
2013-01-13 07:18:00,55.5,54.0,30.12,SE,142,0.0,0.0,95,0.00,,,0.00,weatherlink.com 1.10,2013-01-13 12:18:00,
2013-01-13 07:33:00,55.2,54.0,30.13,SE,142,0.0,0.0,95,0.00,,,0.00,weatherlink.com 1.10,2013-01-13 12:33:00,
2013-01-13 07:48:00,55.5,54.0,30.14,SE,142,0.0,0.0,95,0.00,,,0.00,weatherlink.com 1.10,2013-01-13 12:48:00,
2013-01-13 08:03:00,58.3,57.0,30.14,SE,142,0.0,0.0,96,0.00,,,0.00,weatherlink.com 1.10,2013-01-13 13:03:00,
2013-01-13 08:18:00,60.7,60.0,30.15,SE,142,0.0,0.0,96,0.00,,,0.00,weatherlink.com 1.10,2013-01-13 13:18:00,
2013-01-13 08:33:00,63.2,62.0,30.16,SE,142,0.0,0.0,96,0.00,,,0.00,weatherlink.com 1.10,2013-01-13 13:33:00,
2013-01-13 08:48:00,65.4,64.0,30.16,SE,142,0.0,1.0,96,0.00,,,0.00,weatherlink.com 1.10,2013-01-13 13:48:00,
2013-01-13 09:03:00,67.3,66.0,30.17,SE,142,1.0,3.0,96,0.00,,,0.00,weatherlink.com 1.10,2013-01-13 14:03:00,
2013-01-13 09:18:00,69.1,67.0,30.17,SSE,148,1.0,4.0,94,0.00,,,0.00,weatherlink.com 1.10,2013-01-13 14:18:00,
2013-01-13 09:33:00,71.1,68.0,30.18,South,174,2.0,7.0,89,0.00,,,0.00,weatherlink.com 1.10,2013-01-13 14:33:00,
2013-01-13 09:48:00,72.7,68.0,30.18,South,179,5.0,9.0,86,0.00,,,0.00,weatherlink.com 1.10,2013-01-13 14:48:00,
2013-01-13 10:03:00,74.3,69.0,30.18,South,184,0.0,10.0,83,0.00,,,0.00,weatherlink.com 1.10,2013-01-13 15:03:00,
2013-01-13 10:18:00,76.4,69.0,30.18,SW,228,6.0,8.0,77,0.00,,,0.00,weatherlink.com 1.10,2013-01-13 15:18:00,
2013-01-13 10:34:00,76.7,68.0,30.18,SW,214,5.0,9.0,75,0.00,,,0.00,weatherlink.com 1.10,2013-01-13 15:34:00,
2013-01-13 10:49:00,76.9,68.0,30.18,SW,216,3.0,10.0,73,0.00,,,0.00,weatherlink.com 1.10,2013-01-13 15:49:00,
2013-01-13 11:04:00,78.3,69.0,30.17,SSE,168,5.0,8.0,72,0.00,,,0.00,weatherlink.com 1.10,2013-01-13 16:04:00,
2013-01-13 11:19:00,78.6,68.0,30.16,South,178,3.0,7.0,71,0.00,,,0.00,weatherlink.com 1.10,2013-01-13 16:19:00,
2013-01-13 11:34:00,79.1,68.0,30.15,SSW,212,4.0,9.0,68,0.00,,,0.00,weatherlink.com 1.10,2013-01-13 16:34:00,
2013-01-13 11:49:00,80.1,67.0,30.14,SSE,148,3.0,8.0,65,0.00,,,0.00,weatherlink.com 1.10,2013-01-13 16:49:00,
2013-01-13 12:04:00,79.4,67.0,30.13,SSE,160,6.0,9.0,66,0.00,,,0.00,weatherlink.com 1.10,2013-01-13 17:04:00,
2013-01-13 12:19:00,80.1,67.0,30.12,SW,215,1.0,7.0,64,0.00,,,0.00,weatherlink.com 1.10,2013-01-13 17:19:00,
2013-01-13 12:34:00,80.1,66.0,30.12,SSW,194,4.0,7.0,62,0.00,,,0.00,weatherlink.com 1.10,2013-01-13 17:34:00,
2013-01-13 12:49:00,80.1,66.0,30.11,South,175,0.0,6.0,62,0.00,,,0.00,weatherlink.com 1.10,2013-01-13 17:49:00,
2013-01-13 13:04:00,80.1,66.0,30.10,South,174,4.0,8.0,62,0.00,,,0.00,weatherlink.com 1.10,2013-01-13 18:04:00,
2013-01-13 13:19:00,80.4,67.0,30.09,South,181,0.0,5.0,64,0.00,,,0.00,weatherlink.com 1.10,2013-01-13 18:19:00,
2013-01-13 13:34:00,80.5,67.0,30.09,South,175,1.0,8.0,63,0.00,,,0.00,weatherlink.com 1.10,2013-01-13 18:34:00,
2013-01-13 13:49:00,79.4,69.0,30.08,SSE,158,5.0,7.0,70,0.00,,,0.00,weatherlink.com 1.10,2013-01-13 18:49:00,
2013-01-13 14:04:00,79.2,67.0,30.09,SSE,165,2.0,7.0,67,0.00,,,0.00,weatherlink.com 1.10,2013-01-13 19:04:00,
2013-01-13 14:19:00,77.9,68.0,30.09,ESE,109,4.0,7.0,71,0.00,,,0.00,weatherlink.com 1.10,2013-01-13 19:19:00,
2013-01-13 14:34:00,78.3,68.0,30.09,ESE,121,5.0,9.0,71,0.00,,,0.00,weatherlink.com 1.10,2013-01-13 19:34:00,
2013-01-13 14:49:00,77.5,67.0,30.10,SE,134,5.0,8.0,71,0.00,,,0.00,weatherlink.com 1.10,2013-01-13 19:49:00,
2013-01-13 15:04:00,76.6,68.0,30.09,SE,131,1.0,8.0,74,0.00,,,0.00,weatherlink.com 1.10,2013-01-13 20:04:00,
2013-01-13 15:19:00,75.8,68.0,30.11,SE,137,2.0,7.0,76,0.00,,,0.00,weatherlink.com 1.10,2013-01-13 20:19:00,
2013-01-13 15:34:00,74.9,67.0,30.11,ESE,118,1.0,9.0,76,0.00,,,0.00,weatherlink.com 1.10,2013-01-13 20:34:00,
2013-01-13 15:49:00,74.8,67.0,30.11,SE,140,0.0,7.0,77,0.00,,,0.00,weatherlink.com 1.10,2013-01-13 20:49:00,
2013-01-13 16:04:00,74.2,67.0,30.11,SE,139,2.0,5.0,79,0.00,,,0.00,weatherlink.com 1.10,2013-01-13 21:04:00,
2013-01-13 16:19:00,72.8,67.0,30.12,ESE,112,4.0,8.0,81,0.00,,,0.00,weatherlink.com 1.10,2013-01-13 21:19:00,
2013-01-13 16:34:00,72.1,66.0,30.12,SE,135,1.0,4.0,82,0.00,,,0.00,weatherlink.com 1.10,2013-01-13 21:34:00,
2013-01-13 16:49:00,71.6,67.0,30.12,SE,135,1.0,3.0,84,0.00,,,0.00,weatherlink.com 1.10,2013-01-13 21:49:00,
2013-01-13 17:04:00,71.1,66.0,30.12,SSE,152,1.0,5.0,84,0.00,,,0.00,weatherlink.com 1.10,2013-01-13 22:04:00,
2013-01-13 17:19:00,70.5,66.0,30.12,SSE,152,2.0,5.0,85,0.00,,,0.00,weatherlink.com 1.10,2013-01-13 22:19:00,
2013-01-13 17:34:00,69.9,66.0,30.11,SE,130,1.0,5.0,86,0.00,,,0.00,weatherlink.com 1.10,2013-01-13 22:34:00,
2013-01-13 17:49:00,69.3,65.0,30.11,SE,136,4.0,6.0,87,0.00,,,0.00,weatherlink.com 1.10,2013-01-13 22:49:00,
2013-01-13 18:04:00,68.8,65.0,30.12,SSE,148,1.0,5.0,88,0.00,,,0.00,weatherlink.com 1.10,2013-01-13 23:04:00,
2013-01-13 18:19:00,68.4,65.0,30.11,SE,146,3.0,5.0,89,0.00,,,0.00,weatherlink.com 1.10,2013-01-13 23:19:00,
2013-01-13 18:34:00,68.1,65.0,30.11,SE,142,0.0,4.0,89,0.00,,,0.00,weatherlink.com 1.10,2013-01-13 23:34:00,
2013-01-13 18:49:00,68.0,65.0,30.11,SE,140,0.0,6.0,89,0.00,,,0.00,weatherlink.com 1.10,2013-01-13 23:49:00,
2013-01-13 19:04:00,68.1,65.0,30.11,SE,128,3.0,8.0,89,0.00,,,0.00,weatherlink.com 1.10,2013-01-14 00:04:00,
2013-01-13 19:19:00,67.9,65.0,30.11,SSW,209,3.0,8.0,89,0.00,,,0.00,weatherlink.com 1.10,2013-01-14 00:19:00,
2013-01-13 19:34:00,67.7,64.0,30.11,South,180,3.0,7.0,89,0.00,,,0.00,weatherlink.com 1.10,2013-01-14 00:34:00,
2013-01-13 19:49:00,67.6,64.0,30.11,SE,139,2.0,8.0,89,0.00,,,0.00,weatherlink.com 1.10,2013-01-14 00:49:00,
2013-01-13 20:04:00,67.4,64.0,30.11,South,186,3.0,5.0,89,0.00,,,0.00,weatherlink.com 1.10,2013-01-14 01:04:00,
2013-01-13 20:19:00,67.2,64.0,30.11,South,179,2.0,7.0,89,0.00,,,0.00,weatherlink.com 1.10,2013-01-14 01:19:00,
2013-01-13 20:34:00,66.9,64.0,30.11,SE,146,3.0,6.0,89,0.00,,,0.00,weatherlink.com 1.10,2013-01-14 01:34:00,
2013-01-13 20:49:00,66.6,64.0,30.12,SSE,167,2.0,4.0,90,0.00,,,0.00,weatherlink.com 1.10,2013-01-14 01:49:00,
2013-01-13 21:04:00,65.9,63.0,30.12,SSE,167,0.0,3.0,90,0.00,,,0.00,weatherlink.com 1.10,2013-01-14 02:04:00,
2013-01-13 21:19:00,64.7,62.0,30.12,SSE,167,0.0,1.0,90,0.00,,,0.00,weatherlink.com 1.10,2013-01-14 02:19:00,
2013-01-13 21:34:00,63.7,61.0,30.12,SSE,167,0.0,1.0,91,0.00,,,0.00,weatherlink.com 1.10,2013-01-14 02:34:00,
2013-01-13 21:49:00,62.7,60.0,30.13,SSE,167,0.0,0.0,91,0.00,,,0.00,weatherlink.com 1.10,2013-01-14 02:49:00,
2013-01-13 22:04:00,61.9,60.0,30.14,SSE,167,0.0,0.0,92,0.00,,,0.00,weatherlink.com 1.10,2013-01-14 03:04:00,
2013-01-13 22:19:00,61.3,59.0,30.14,SSE,167,0.0,0.0,92,0.00,,,0.00,weatherlink.com 1.10,2013-01-14 03:19:00,
2013-01-13 22:34:00,60.8,59.0,30.15,SSE,167,0.0,0.0,92,0.00,,,0.00,weatherlink.com 1.10,2013-01-14 03:34:00,
2013-01-13 22:49:00,60.5,59.0,30.15,SSE,167,0.0,0.0,93,0.00,,,0.00,weatherlink.com 1.10,2013-01-14 03:49:00,
2013-01-13 23:04:00,60.1,58.0,30.15,SSE,167,0.0,0.0,93,0.00,,,0.00,weatherlink.com 1.10,2013-01-14 04:04:00,
2013-01-13 23:19:00,59.8,58.0,30.15,SSE,167,0.0,0.0,93,0.00,,,0.00,weatherlink.com 1.10,2013-01-14 04:19:00,
2013-01-13 23:34:00,59.6,58.0,30.15,SSE,167,0.0,0.0,93,0.00,,,0.00,weatherlink.com 1.10,2013-01-14 04:34:00,
2013-01-13 23:49:00,59.3,57.0,30.15,SSE,167,0.0,0.0,93,0.00,,,0.00,weatherlink.com 1.10,2013-01-14 04:49:00,